Date String (YYYY-MM-DD hh:mm:ss) UTC,Instrument flags,Ambient pressure (hPa),Sample flow (lpm),Bypass flow (lpm),Sample temperature (°C),Ambient temperature (°C),ASC tube jacket temperature (°C),LED temperature (°C),Box temperature (°C),Sample RH (%),Span deviation,Mass concentration (μg/m³),Mass concentration (μg/m³),Mass concentration (μg/m³)
DateTimeUTC,F1_M11,P_M11,Q1_M11,Q2_M11,T1_M11,T2_M11,T3_M11,T4_M11,T5_M11,U1_M11,ZSPAN_M11,X0_M11,X2_M11,X1_M11
2022-02-25 01:00:00,,0824.7,5.00,0.00,22.7,21.9,00.0,31.7,24.4,05.7,0001.6,0013.74,0007.88,0007.22
2022-02-25 01:01:00,,0824.8,5.00,0.00,22.7,21.8,00.0,31.7,24.4,05.7,0002.0,0013.28,0007.87,0007.22
2022-02-25 01:02:00,,0824.9,5.00,0.00,22.6,21.8,00.0,31.7,24.4,05.7,0002.2,0012.92,0007.85,0007.23
2022-02-25 01:03:00,,0824.9,5.01,0.00,22.6,21.8,00.0,31.7,24.4,05.7,0002.6,0012.66,0007.84,0007.23
2022-02-25 01:04:00,,0824.9,5.01,0.00,22.6,21.7,00.0,31.7,24.4,05.7,0002.4,0012.44,0007.86,0007.23
2022-02-25 01:05:00,,0824.9,5.00,0.00,22.6,21.7,00.0,31.7,24.3,05.7,0002.6,0013.00,0007.87,0007.21
2022-02-25 01:06:00,,0824.9,4.99,0.00,22.6,21.7,00.0,31.7,24.3,05.7,0002.9,0013.55,0007.88,0007.20
2022-02-25 01:07:00,,0824.9,5.01,0.00,22.6,21.7,00.0,31.6,24.3,05.7,0003.2,0014.44,0007.91,0007.20
2022-02-25 01:08:00,,0824.9,4.99,0.00,22.6,21.9,00.0,31.6,24.3,05.7,0002.6,0014.35,0007.96,0007.20
2022-02-25 01:09:00,,0825.0,5.00,0.00,22.7,22.5,00.0,31.7,24.5,05.7,0002.2,0013.88,0007.96,0007.21
2022-02-25 01:10:00,,0825.1,5.01,0.00,22.8,23.0,00.0,31.7,24.7,05.7,0001.8,0013.96,0007.96,0007.22
2022-02-25 01:11:00,,0825.1,5.00,0.00,22.8,22.9,00.0,31.7,24.8,05.7,0001.8,0014.21,0007.94,0007.22
2022-02-25 01:12:00,,0825.0,5.00,0.00,22.9,22.8,00.0,31.7,24.8,05.6,0001.8,0014.24,0007.97,0007.23
2022-02-25 01:13:00,,0825.1,4.99,0.00,22.8,22.6,00.0,31.7,24.7,05.7,0001.3,0014.32,0008.02,0007.25
2022-02-25 01:14:00,,0825.0,5.00,0.00,22.8,22.5,00.0,31.7,24.7,05.7,0001.4,0014.37,0008.04,0007.26
2022-02-25 01:15:00,,0825.0,5.00,0.00,22.8,22.3,00.0,31.7,24.6,05.7,0002.0,0014.40,0008.07,0007.27
2022-02-25 01:16:00,,0825.1,5.00,0.00,22.8,22.2,00.0,31.7,24.6,05.7,0001.7,0014.00,0008.15,0007.29
2022-02-25 01:17:00,,0825.1,5.01,0.00,22.8,22.1,00.0,31.7,24.5,05.6,0001.3,0013.69,0008.15,0007.31
2022-02-25 01:18:00,,0825.1,5.00,0.00,22.8,22.0,00.0,31.7,24.5,05.6,0000.8,0012.59,0008.12,0007.30
2022-02-25 01:19:00,,0825.2,4.99,0.00,22.7,22.0,00.0,31.7,24.5,05.7,0001.2,0012.35,0008.06,0007.30
2022-02-25 01:20:00,,0825.2,5.00,0.00,22.7,21.9,00.0,31.7,24.4,05.7,0001.4,0012.31,0008.05,0007.30
2022-02-25 01:21:00,,0825.2,5.02,0.00,22.7,21.9,00.0,31.7,24.4,05.7,0001.5,0012.26,0008.05,0007.31
2022-02-25 01:22:00,,0825.2,5.00,0.00,22.6,21.8,00.0,31.7,24.4,05.7,0001.1,0011.81,0008.07,0007.33
2022-02-25 01:23:00,,0825.2,4.99,0.00,22.6,21.8,00.0,31.7,24.3,05.7,0001.0,0012.13,0008.07,0007.34
2022-02-25 01:24:00,,0825.2,5.00,0.00,22.6,21.7,00.0,31.6,24.3,05.7,0001.0,0012.31,0008.05,0007.35
2022-02-25 01:25:00,,0825.2,4.99,0.00,22.6,21.7,00.0,31.6,24.3,05.8,0000.7,0012.34,0008.07,0007.36
2022-02-25 01:26:00,,0825.2,5.00,0.00,22.5,21.7,00.0,31.6,24.2,05.8,0000.2,0012.32,0008.09,0007.37
2022-02-25 01:27:00,,0825.2,5.01,0.00,22.5,21.6,00.0,31.6,24.2,05.8,0000.2,0012.17,0008.05,0007.39
2022-02-25 01:28:00,,0825.3,5.01,0.00,22.5,21.6,00.0,31.6,24.1,05.8,0000.8,0012.21,0008.08,0007.42
2022-02-25 01:29:00,,0825.3,5.00,0.00,22.5,22.0,00.0,31.6,24.2,05.8,0001.0,0012.39,0008.15,0007.46
2022-02-25 01:30:00,,0825.3,4.99,0.00,22.6,22.6,00.0,31.6,24.5,05.8,0000.7,0012.57,0008.21,0007.49
2022-02-25 01:31:00,,0825.4,5.01,0.00,22.7,23.0,00.0,31.7,24.7,05.8,0000.6,0012.74,0008.27,0007.51
2022-02-25 01:32:00,,0825.4,4.99,0.00,22.8,22.9,00.0,31.7,24.7,05.8,0000.6,0012.85,0008.30,0007.53
2022-02-25 01:33:00,,0825.3,5.01,0.00,22.8,22.7,00.0,31.7,24.7,05.8,0000.6,0012.92,0008.34,0007.55
2022-02-25 01:34:00,,0825.3,5.01,0.00,22.8,22.6,00.0,31.7,24.7,05.8,0000.3,0013.01,0008.34,0007.56
2022-02-25 01:35:00,,0825.3,5.00,0.00,22.8,22.4,00.0,31.7,24.6,05.8,0000.2,0012.80,0008.37,0007.58
2022-02-25 01:36:00,,0825.3,5.00,0.00,22.8,22.3,00.0,31.7,24.6,05.7,0000.0,0013.50,0008.46,0007.61
2022-02-25 01:37:00,,0825.3,5.00,0.00,22.7,22.2,00.0,31.7,24.5,05.8,0000.4,0013.48,0008.45,0007.63
2022-02-25 01:38:00,,0825.4,5.00,0.00,22.7,22.1,00.0,31.7,24.5,05.8,0000.1,0014.01,0008.43,0007.63
2022-02-25 01:39:00,,0825.4,5.00,0.00,22.7,22.0,00.0,31.7,24.4,05.8,0000.1,0014.37,0008.46,0007.65
2022-02-25 01:40:00,,0825.4,5.00,0.00,22.6,21.9,00.0,31.7,24.3,05.8,-000.4,0014.18,0008.46,0007.69
2022-02-25 01:41:00,,0825.4,5.01,0.00,22.6,21.8,00.0,31.6,24.3,05.9,-000.1,0014.36,0008.49,0007.71
2022-02-25 01:42:00,,0825.4,5.01,0.00,22.5,21.8,00.0,31.6,24.2,05.9,0000.0,0014.71,0008.56,0007.73
2022-02-25 01:43:00,,0825.4,4.99,0.00,22.5,21.7,00.0,31.6,24.1,06.0,0000.1,0014.90,0008.56,0007.76
2022-02-25 01:44:00,,0825.5,4.99,0.00,22.5,21.6,00.0,31.6,24.1,06.0,0000.3,0014.88,0008.56,0007.77
2022-02-25 01:45:00,,0825.5,4.99,0.00,22.4,21.6,00.0,31.6,24.1,06.0,0000.6,0014.81,0008.60,0007.79
2022-02-25 01:46:00,,0825.4,5.00,0.00,22.4,21.5,00.0,31.5,24.1,06.0,0000.8,0014.98,0008.65,0007.83
2022-02-25 01:47:00,,0825.4,5.02,0.00,22.4,21.5,00.0,31.5,24.2,06.1,0001.3,0014.47,0008.65,0007.83
2022-02-25 01:48:00,,0825.5,4.99,0.00,22.4,21.5,00.0,31.5,24.1,06.1,0001.3,0014.54,0008.66,0007.83
2022-02-25 01:49:00,,0825.5,5.00,0.00,22.4,21.8,00.0,31.5,24.2,06.1,0001.4,0014.29,0008.69,0007.84
2022-02-25 01:50:00,,0825.5,4.99,0.00,22.5,22.5,00.0,31.5,24.4,06.0,0001.0,0013.72,0008.68,0007.85
2022-02-25 01:51:00,,0825.5,5.01,0.00,22.7,23.0,00.0,31.6,24.6,06.0,0001.4,0013.78,0008.67,0007.84
2022-02-25 01:52:00,,0825.5,4.99,0.00,22.7,22.9,00.0,31.6,24.6,06.0,0001.2,0013.84,0008.65,0007.82
2022-02-25 01:53:00,,0825.5,5.00,0.00,22.7,22.7,00.0,31.6,24.6,06.0,0001.3,0013.57,0008.60,0007.81
2022-02-25 01:54:00,,0825.6,5.00,0.00,22.7,22.5,00.0,31.6,24.5,06.0,0001.5,0013.24,0008.60,0007.81
2022-02-25 01:55:00,,0825.6,5.00,0.00,22.6,22.3,00.0,31.6,24.4,06.0,0001.7,0013.51,0008.64,0007.82
2022-02-25 01:56:00,,0825.5,5.00,0.00,22.6,22.1,00.0,31.6,24.3,06.0,0001.4,0013.63,0008.66,0007.83
2022-02-25 01:57:00,,0825.6,5.00,0.00,22.5,22.0,00.0,31.6,24.2,06.0,0000.9,0013.80,0008.64,0007.83
2022-02-25 01:58:00,,0825.6,5.01,0.00,22.5,21.8,00.0,31.6,24.2,06.0,0000.2,0013.61,0008.62,0007.83
2022-02-25 01:59:00,,0825.6,4.99,0.00,22.5,21.7,00.0,31.5,24.1,06.1,0000.0,0013.54,0008.61,0007.86
